Location: San Martino di Castrozza
(46.2667°N, 11.8000°E)
Time: 03:32:52
(UTC+00:00)

Cosmos 2344 - Pass Details

Date: 23 April 2021
Orbit: 1240 x 3002 km, 63.3° (Epoch: 15 May)

Event Time Altitude Azimuth Distance (km) Brightness Sun altitude
Rises 02:44:57 0° 320° (NW) 4,551 6.4 -14.2°
Reaches altitude 10° 02:47:33 10° 320° (NW) 3,707 6.0 -13.8°
Maximum altitude 02:56:54 88° 233° (SW) 1,899 4.4 -12.5°
Drops below altitude 10° 03:10:04 10° 146° (SE) 5,074 6.7 -10.5°
Sets 03:14:16 0° 146° (SE) 6,302 7.2 -9.9°
